,,,PA_Meas_PMT16A,,PR_Meas_QMR101_102,,RH_Meas_QMH101,,SR_Meas_QMS101,,TA_Meas_QMH101,,GenWind,,GenWind,
date,time,status,PA,status,PR,status,RH,status,SR,status,TA,status,DirAvg,status,SpdAvg,
2009-05-06, 00:00:05,VALID,1005.67,VALID,0,VALID,93.6292,VALID,0.100563,VALID,24.7743,VALID,64,VALID,0.393359,
2009-05-06, 00:01:05,VALID,1005.69,VALID,0,VALID,93.614,VALID,0.100563,VALID,24.7335,VALID,64,VALID,0.423828,
2009-05-06, 00:02:05,VALID,1005.7,VALID,0,VALID,93.6216,VALID,0.100563,VALID,24.7335,VALID,64,VALID,0.256641,
2009-05-06, 00:03:05,VALID,1005.68,VALID,0,VALID,93.6826,VALID,0,VALID,24.7548,VALID,64,VALID,0.221094,
2009-05-06, 00:04:05,VALID,1005.69,VALID,0,VALID,93.82,VALID,0,VALID,24.7529,VALID,64,VALID,0.509766,
2009-05-06, 00:05:05,VALID,1005.65,VALID,0,VALID,93.8429,VALID,0,VALID,24.7743,VALID,64,VALID,0.224219,
2009-05-06, 00:06:05,VALID,1005.66,VALID,0,VALID,93.8123,VALID,0,VALID,24.7724,VALID,64,VALID,0.315625,
2009-05-06, 00:07:05,VALID,1005.63,VALID,0,VALID,93.9268,VALID,0,VALID,24.8132,VALID,64,VALID,0.386719,
2009-05-06, 00:08:05,VALID,1005.59,VALID,0,VALID,93.9268,VALID,0,VALID,24.7919,VALID,64,VALID,0.302344,
2009-05-06, 00:09:05,VALID,1005.61,VALID,0,VALID,93.8657,VALID,0,VALID,24.7919,VALID,64,VALID,0.00195313,
2009-05-06, 00:10:05,VALID,1005.6,VALID,0,VALID,93.9115,VALID,0.100563,VALID,24.7919,VALID,64,VALID,0,
2009-05-06, 00:11:05,VALID,1005.62,VALID,0,VALID,93.8963,VALID,0,VALID,24.7919,VALID,64,VALID,0,
2009-05-06, 00:12:05,VALID,1005.61,VALID,0,VALID,93.9039,VALID,0.100563,VALID,24.7724,VALID,50,VALID,0.659375,
2009-05-06, 00:13:05,VALID,1005.56,VALID,0,VALID,93.8276,VALID,0.100563,VALID,24.7335,VALID,45,VALID,0.540625,
2009-05-06, 00:14:05,VALID,1005.59,VALID,0,VALID,93.7055,VALID,0,VALID,24.7159,VALID,45,VALID,0.476953,
2009-05-06, 00:15:05,VALID,1005.56,VALID,0,VALID,93.8047,VALID,0,VALID,24.6964,VALID,45,VALID,0.397656,
2009-05-06, 00:16:05,VALID,1005.57,VALID,0,VALID,93.7437,VALID,0.100563,VALID,24.6342,VALID,45,VALID,0.349219,
2009-05-06, 00:17:05,VALID,1005.56,VALID,0,VALID,93.8047,VALID,0,VALID,24.6556,VALID,45,VALID,0.369531,
2009-05-06, 00:18:05,VALID,1005.55,VALID,0,VALID,93.9573,VALID,0,VALID,24.675,VALID,50,VALID,0.429297,
2009-05-06, 00:19:05,VALID,1005.51,VALID,0,VALID,93.9725,VALID,0.100563,VALID,24.6945,VALID,50,VALID,0.275,
2009-05-06, 00:20:05,VALID,1005.49,VALID,0,VALID,94.0031,VALID,0,VALID,24.6945,VALID,50,VALID,0.453125,
2009-05-06, 00:21:05,VALID,1005.46,VALID,0,VALID,94.0259,VALID,0.100563,VALID,24.714,VALID,50,VALID,0.391797,
2009-05-06, 00:22:05,VALID,1005.45,VALID,0,VALID,94.1251,VALID,0.100563,VALID,24.7529,VALID,49,VALID,0.618359,
2009-05-06, 00:23:05,VALID,1005.47,VALID,0,VALID,94.0565,VALID,0.100563,VALID,24.7529,VALID,49,VALID,0.419141,
2009-05-06, 00:24:05,VALID,1005.46,VALID,0,VALID,94.0031,VALID,0.100563,VALID,24.7335,VALID,49,VALID,0.366016,
2009-05-06, 00:25:05,VALID,1005.44,VALID,0,VALID,93.9191,VALID,0.100563,VALID,24.7335,VALID,49,VALID,0.380469,
2009-05-06, 00:26:05,VALID,1005.48,VALID,0,VALID,93.8352,VALID,0,VALID,24.6964,VALID,49,VALID,0.291016,
2009-05-06, 00:27:05,VALID,1005.46,VALID,0,VALID,93.8429,VALID,0.100563,VALID,24.6556,VALID,49,VALID,0.147656,
2009-05-06, 00:28:05,VALID,1005.47,VALID,0,VALID,93.9497,VALID,0.100563,VALID,24.6945,VALID,49,VALID,0.255469,
2009-05-06, 00:29:05,VALID,1005.49,VALID,0,VALID,93.9725,VALID,0,VALID,24.6945,VALID,49,VALID,0.380469,
2009-05-06, 00:30:05,VALID,1005.49,VALID,0,VALID,94.0183,VALID,0.100563,VALID,24.7335,VALID,49,VALID,0.300781,
2009-05-06, 00:31:05,VALID,1005.46,VALID,0,VALID,94.1251,VALID,0.100563,VALID,24.7529,VALID,49,VALID,0.334766,
2009-05-06, 00:32:05,VALID,1005.48,VALID,0,VALID,94.1022,VALID,0.100563,VALID,24.7724,VALID,49,VALID,0.359375,
2009-05-06, 00:33:05,VALID,1005.48,VALID,0,VALID,94.0488,VALID,0.100563,VALID,24.7919,VALID,49,VALID,0.359375,
2009-05-06, 00:34:05,VALID,1005.47,VALID,0,VALID,94.0336,VALID,0.100563,VALID,24.7724,VALID,49,VALID,0.618359,
2009-05-06, 00:35:05,VALID,1005.46,VALID,0,VALID,93.9573,VALID,0,VALID,24.7529,VALID,49,VALID,0.537109,
2009-05-06, 00:36:05,VALID,1005.45,VALID,0,VALID,93.8581,VALID,0.100563,VALID,24.714,VALID,49,VALID,0.372266,
2009-05-06, 00:37:05,VALID,1005.41,VALID,0,VALID,93.7589,VALID,0,VALID,24.675,VALID,49,VALID,0.364062,
2009-05-06, 00:38:05,VALID,1005.42,VALID,0,VALID,93.7437,VALID,0.100563,VALID,24.6166,VALID,49,VALID,0.454297,
2009-05-06, 00:39:05,VALID,1005.39,VALID,0,VALID,93.7818,VALID,0.100563,VALID,24.6166,VALID,49,VALID,0.39375,
2009-05-06, 00:40:05,VALID,1005.36,VALID,0,VALID,93.8276,VALID,0,VALID,24.6166,VALID,49,VALID,0.458203,
2009-05-06, 00:41:05,VALID,1005.34,VALID,0,VALID,93.7971,VALID,0,VALID,24.5758,VALID,49,VALID,0.115625,
2009-05-06, 00:42:05,VALID,1005.32,VALID,0,VALID,93.8276,VALID,0,VALID,24.5564,VALID,49,VALID,0.212109,
2009-05-06, 00:43:05,VALID,1005.29,VALID,0,VALID,93.7742,VALID,0.100563,VALID,24.5582,VALID,49,VALID,0.30625,
2009-05-06, 00:44:05,VALID,1005.3,VALID,0,VALID,93.7666,VALID,0,VALID,24.498,VALID,49,VALID,0.308203,
2009-05-06, 00:45:05,VALID,1005.27,VALID,0,VALID,93.82,VALID,0,VALID,24.5193,VALID,49,VALID,0.199609,
2009-05-06, 00:46:05,VALID,1005.26,VALID,0,VALID,93.8581,VALID,0.100563,VALID,24.4998,VALID,49,VALID,0.184375,
2009-05-06, 00:47:05,VALID,1005.25,VALID,0,VALID,93.8963,VALID,0,VALID,24.5193,VALID,49,VALID,0.273047,
2009-05-06, 00:48:05,VALID,1005.26,VALID,0,VALID,93.8886,VALID,0,VALID,24.5406,VALID,49,VALID,0.266797,
2009-05-06, 00:49:05,VALID,1005.26,VALID,0,VALID,93.9115,VALID,0,VALID,24.4998,VALID,49,VALID,0.00117188,
2009-05-06, 00:50:05,VALID,1005.23,VALID,0,VALID,93.9649,VALID,0.100563,VALID,24.5406,VALID,49,VALID,0.0339844,
2009-05-06, 00:51:05,VALID,1005.23,VALID,0,VALID,93.9878,VALID,0,VALID,24.5388,VALID,49,VALID,0.276953,
2009-05-06, 00:52:05,VALID,1005.24,VALID,0,VALID,94.087,VALID,0,VALID,24.5777,VALID,49,VALID,0.237891,
2009-05-06, 00:53:05,VALID,1005.22,VALID,0,VALID,94.0946,VALID,0.100563,VALID,24.5777,VALID,49,VALID,0.302344,
2009-05-06, 00:54:05,VALID,1005.21,VALID,0,VALID,94.1709,VALID,0,VALID,24.6361,VALID,49,VALID,0.319922,
2009-05-06, 00:55:04,VALID,1005.21,VALID,0,VALID,94.1862,VALID,0.100563,VALID,24.6769,VALID,49,VALID,0.332422,
2009-05-06, 00:56:04,VALID,1005.18,VALID,0,VALID,94.2396,VALID,0,VALID,24.714,VALID,49,VALID,0.594531,
2009-05-06, 00:57:04,VALID,1005.15,VALID,0,VALID,94.1938,VALID,0,VALID,24.7548,VALID,49,VALID,0.477734,
2009-05-06, 00:58:04,VALID,1005.12,VALID,0,VALID,94.1022,VALID,0.100563,VALID,24.7335,VALID,49,VALID,0.658984,
2009-05-06, 00:59:04,VALID,1005.13,VALID,0,VALID,93.9497,VALID,0,VALID,24.7353,VALID,49,VALID,0.648047,
2009-05-06, 01:00:04,VALID,1005.13,VALID,0,VALID,93.7971,VALID,0,VALID,24.6361,VALID,49,VALID,0.552344,
2009-05-06, 01:01:04,VALID,1005.09,VALID,0,VALID,93.7513,VALID,0.100563,VALID,24.5972,VALID,41,VALID,0.532031,
2009-05-06, 01:02:04,VALID,1005.11,VALID,0,VALID,93.8963,VALID,0,VALID,24.6574,VALID,31,VALID,0.426953,
2009-05-06, 01:03:04,VALID,1005.07,VALID,0,VALID,93.8123,VALID,0.100563,VALID,24.5972,VALID,31,VALID,0.2875,
2009-05-06, 01:04:04,VALID,1005.07,VALID,0,VALID,93.8123,VALID,0.100563,VALID,24.5796,VALID,31,VALID,0.13125,
2009-05-06, 01:05:04,VALID,1005.06,VALID,0,VALID,93.7895,VALID,0.100563,VALID,24.5388,VALID,31,VALID,0,
2009-05-06, 01:06:04,VALID,1005.02,VALID,0,VALID,93.7971,VALID,0,VALID,24.5388,VALID,31,VALID,0,
2009-05-06, 01:07:04,VALID,1005.03,VALID,0,VALID,93.8047,VALID,0.100563,VALID,24.5388,VALID,31,VALID,0.230859,
2009-05-06, 01:08:04,VALID,1005.03,VALID,0,VALID,93.942,VALID,0,VALID,24.5369,VALID,31,VALID,0.122266,
2009-05-06, 01:09:04,VALID,1005.01,VALID,0,VALID,93.9268,VALID,0.100563,VALID,24.5582,VALID,31,VALID,0.181641,
2009-05-06, 01:10:04,VALID,1005,VALID,0,VALID,94.0488,VALID,0,VALID,24.5582,VALID,44,VALID,0.397656,
2009-05-06, 01:11:04,VALID,1004.97,VALID,0,VALID,94.1022,VALID,0.100563,VALID,24.5972,VALID,44,VALID,0.435547,
2009-05-06, 01:12:04,VALID,1004.95,VALID,0,VALID,94.0946,VALID,0,VALID,24.5758,VALID,44,VALID,0.507422,
2009-05-06, 01:13:04,VALID,1004.93,VALID,0,VALID,94.1328,VALID,0.100563,VALID,24.6361,VALID,44,VALID,0.548437,
2009-05-06, 01:14:04,VALID,1004.88,VALID,0,VALID,94.0641,VALID,0,VALID,24.5953,VALID,44,VALID,0.54375,
2009-05-06, 01:15:04,VALID,1004.89,VALID,0,VALID,93.881,VALID,0.100563,VALID,24.5796,VALID,43,VALID,0.463281,
2009-05-06, 01:16:04,VALID,1004.86,VALID,0,VALID,93.8276,VALID,0.100563,VALID,24.4998,VALID,43,VALID,0.299219,
2009-05-06, 01:17:04,VALID,1004.84,VALID,0,VALID,93.8429,VALID,0.100563,VALID,24.4804,VALID,43,VALID,0.372266,
2009-05-06, 01:18:04,VALID,1004.84,VALID,0,VALID,93.8657,VALID,0.100563,VALID,24.4822,VALID,44,VALID,0.122266,
2009-05-06, 01:19:04,VALID,1004.8,VALID,0,VALID,93.8581,VALID,0.100563,VALID,24.4414,VALID,44,VALID,0.262891,
2009-05-06, 01:20:04,VALID,1004.8,VALID,0,VALID,93.8581,VALID,0,VALID,24.422,VALID,44,VALID,0,
2009-05-06, 01:21:04,VALID,1004.79,VALID,0,VALID,93.9039,VALID,0.100563,VALID,24.4414,VALID,43,VALID,0.0046875,
2009-05-06, 01:22:04,VALID,1004.78,VALID,0,VALID,93.9268,VALID,0.100563,VALID,24.4025,VALID,44,VALID,0.0402344,
2009-05-06, 01:23:04,VALID,1004.75,VALID,0,VALID,94.0107,VALID,0.100563,VALID,24.4628,VALID,44,VALID,0.288672,
2009-05-06, 01:24:04,VALID,1004.76,VALID,0,VALID,94.0565,VALID,0,VALID,24.4609,VALID,44,VALID,0.0242187,
2009-05-06, 01:25:04,VALID,1004.73,VALID,0,VALID,94.087,VALID,0,VALID,24.4609,VALID,44,VALID,0.353516,
2009-05-06, 01:26:04,VALID,1004.75,VALID,0,VALID,94.1175,VALID,0.100563,VALID,24.4804,VALID,44,VALID,0.297656,
2009-05-06, 01:27:04,VALID,1004.77,VALID,0,VALID,94.1404,VALID,0,VALID,24.4822,VALID,44,VALID,0.0621094,
2009-05-06, 01:28:04,VALID,1004.74,VALID,0,VALID,94.1175,VALID,0,VALID,24.4822,VALID,44,VALID,0,
2009-05-06, 01:29:04,VALID,1004.73,VALID,0,VALID,94.1556,VALID,0,VALID,24.4822,VALID,44,VALID,0,
2009-05-06, 01:30:04,VALID,1004.72,VALID,0,VALID,94.0794,VALID,0,VALID,24.4822,VALID,44,VALID,0,
2009-05-06, 01:31:04,VALID,1004.72,VALID,0,VALID,93.9954,VALID,0,VALID,24.4433,VALID,44,VALID,0,
2009-05-06, 01:32:04,VALID,1004.71,VALID,0,VALID,93.9191,VALID,0,VALID,24.4238,VALID,44,VALID,0,
2009-05-06, 01:33:04,VALID,1004.71,VALID,0,VALID,93.881,VALID,0,VALID,24.3849,VALID,43,VALID,0,
2009-05-06, 01:34:04,VALID,1004.69,VALID,0,VALID,93.8734,VALID,0,VALID,24.3459,VALID,43,VALID,0,
2009-05-06, 01:35:04,VALID,1004.7,VALID,0,VALID,93.8963,VALID,0,VALID,24.3478,VALID,43,VALID,0,
2009-05-06, 01:36:04,VALID,1004.65,VALID,0,VALID,93.8276,VALID,0,VALID,24.307,VALID,43,VALID,0,
2009-05-06, 01:37:04,VALID,1004.63,VALID,0,VALID,93.881,VALID,0,VALID,24.307,VALID,44,VALID,0,
2009-05-06, 01:38:04,VALID,1004.58,VALID,0,VALID,93.881,VALID,0,VALID,24.307,VALID,43,VALID,0,
2009-05-06, 01:39:04,VALID,1004.55,VALID,0,VALID,94.0031,VALID,0,VALID,24.307,VALID,43,VALID,0,
2009-05-06, 01:40:04,VALID,1004.55,VALID,0,VALID,93.9649,VALID,0,VALID,24.2875,VALID,43,VALID,0,
2009-05-06, 01:41:04,VALID,1004.54,VALID,0,VALID,94.0031,VALID,0,VALID,24.2681,VALID,43,VALID,0,
2009-05-06, 01:42:04,VALID,1004.54,VALID,0,VALID,94.1175,VALID,0,VALID,24.2857,VALID,43,VALID,0,
2009-05-06, 01:43:04,VALID,1004.54,VALID,0,VALID,94.0946,VALID,0.100563,VALID,24.2857,VALID,44,VALID,0,
2009-05-06, 01:44:04,VALID,1004.55,VALID,0,VALID,94.1862,VALID,0,VALID,24.307,VALID,43,VALID,0,
2009-05-06, 01:45:04,VALID,1004.52,VALID,0,VALID,94.3921,VALID,0,VALID,24.3654,VALID,43,VALID,0.242578,
2009-05-06, 01:46:04,VALID,1004.55,VALID,0,VALID,94.4074,VALID,0,VALID,24.383,VALID,37,VALID,0.199609,
2009-05-06, 01:47:04,VALID,1004.51,VALID,0,VALID,94.2701,VALID,0,VALID,24.3636,VALID,37,VALID,0.285156,
2009-05-06, 01:48:04,VALID,1004.5,VALID,0,VALID,94.3692,VALID,0,VALID,24.4043,VALID,37,VALID,0.269141,
2009-05-06, 01:49:04,VALID,1004.47,VALID,0,VALID,94.2777,VALID,0,VALID,24.3849,VALID,37,VALID,0.0296875,
2009-05-06, 01:50:04,VALID,1004.47,VALID,0,VALID,94.2548,VALID,0,VALID,24.3654,VALID,37,VALID,0.116797,
2009-05-06, 01:51:04,VALID,1004.45,VALID,0,VALID,94.209,VALID,0,VALID,24.3246,VALID,37,VALID,0.109766,
2009-05-06, 01:52:04,VALID,1004.42,VALID,0,VALID,94.1938,VALID,0,VALID,24.2857,VALID,37,VALID,0,
2009-05-06, 01:53:04,VALID,1004.42,VALID,0,VALID,94.2167,VALID,0,VALID,24.2857,VALID,37,VALID,0.145313,
2009-05-06, 01:54:04,VALID,1004.39,VALID,0,VALID,94.3006,VALID,0.100563,VALID,24.2644,VALID,37,VALID,0.225781,
2009-05-06, 01:55:04,VALID,1004.4,VALID,0,VALID,94.5066,VALID,0.100563,VALID,24.3422,VALID,37,VALID,0.343359,
2009-05-06, 01:56:04,VALID,1004.42,VALID,0,VALID,94.4761,VALID,0.100563,VALID,24.383,VALID,37,VALID,0.5625,
2009-05-06, 01:57:04,VALID,1004.4,VALID,0,VALID,94.5676,VALID,0,VALID,24.4201,VALID,37,VALID,0.529688,
2009-05-06, 01:58:04,VALID,1004.41,VALID,0,VALID,94.5981,VALID,0,VALID,24.4804,VALID,35,VALID,0.672656,
2009-05-06, 01:59:04,VALID,1004.4,VALID,0,VALID,94.5523,VALID,0,VALID,24.4998,VALID,35,VALID,0.491797,
2009-05-06, 02:00:04,VALID,1004.41,VALID,0,VALID,94.4455,VALID,0.100563,VALID,24.4804,VALID,35,VALID,0.410547,
2009-05-06, 02:01:04,VALID,1004.39,VALID,0,VALID,94.3082,VALID,0,VALID,24.422,VALID,35,VALID,0.464844,
2009-05-06, 02:02:04,VALID,1004.38,VALID,0,VALID,94.2243,VALID,0,VALID,24.3636,VALID,35,VALID,0.353125,
2009-05-06, 02:03:04,VALID,1004.38,VALID,0,VALID,94.2014,VALID,0,VALID,24.3265,VALID,35,VALID,0.407031,
2009-05-06, 02:04:04,VALID,1004.35,VALID,0,VALID,94.2548,VALID,0,VALID,24.3052,VALID,35,VALID,0.464844,
2009-05-06, 02:05:04,VALID,1004.37,VALID,0,VALID,94.293,VALID,0,VALID,24.3052,VALID,35,VALID,0.411328,
2009-05-06, 02:06:04,VALID,1004.38,VALID,0,VALID,94.3235,VALID,0.100563,VALID,24.3246,VALID,35,VALID,0.446875,
2009-05-06, 02:07:04,VALID,1004.37,VALID,0,VALID,94.293,VALID,0,VALID,24.3052,VALID,35,VALID,0.415625,
2009-05-06, 02:08:04,VALID,1004.36,VALID,0,VALID,94.2472,VALID,0,VALID,24.2857,VALID,35,VALID,0.451172,
2009-05-06, 02:09:04,VALID,1004.36,VALID,0,VALID,94.209,VALID,0,VALID,24.2273,VALID,35,VALID,0.486719,
2009-05-06, 02:10:04,VALID,1004.38,VALID,0,VALID,94.1862,VALID,0,VALID,24.2273,VALID,35,VALID,0.384766,
2009-05-06, 02:11:04,VALID,1004.37,VALID,0,VALID,94.1404,VALID,0,VALID,24.1689,VALID,35,VALID,0.326172,
2009-05-06, 02:12:04,VALID,1004.36,VALID,0,VALID,94.1404,VALID,0,VALID,24.1513,VALID,35,VALID,0.180469,
2009-05-06, 02:13:04,VALID,1004.36,VALID,0,VALID,94.1633,VALID,0,VALID,24.1513,VALID,35,VALID,0.187109,
2009-05-06, 02:14:04,VALID,1004.34,VALID,0,VALID,94.1785,VALID,0,VALID,24.1513,VALID,35,VALID,0.00703125,
2009-05-06, 02:15:04,VALID,1004.35,VALID,0,VALID,94.1785,VALID,0,VALID,24.1318,VALID,35,VALID,0,
2009-05-06, 02:16:04,VALID,1004.32,VALID,0,VALID,94.1862,VALID,0,VALID,24.1123,VALID,35,VALID,0,
2009-05-06, 02:17:04,VALID,1004.34,VALID,0,VALID,94.2243,VALID,0,VALID,24.1123,VALID,35,VALID,0,
2009-05-06, 02:18:04,VALID,1004.31,VALID,0,VALID,94.1938,VALID,0,VALID,24.0929,VALID,35,VALID,0,
2009-05-06, 02:19:04,VALID,1004.3,VALID,0,VALID,94.2701,VALID,0,VALID,24.1123,VALID,35,VALID,0,
2009-05-06, 02:20:04,VALID,1004.3,VALID,0,VALID,94.354,VALID,0,VALID,24.1513,VALID,35,VALID,0.0375,
2009-05-06, 02:21:04,VALID,1004.34,VALID,0,VALID,94.415,VALID,0,VALID,24.1707,VALID,43,VALID,0.542578,
2009-05-06, 02:22:04,VALID,1004.31,VALID,0,VALID,94.4989,VALID,0,VALID,24.2291,VALID,45,VALID,0.30625,
2009-05-06, 02:23:04,VALID,1004.3,VALID,0,VALID,94.5676,VALID,0,VALID,24.2681,VALID,45,VALID,0.319141,
2009-05-06, 02:24:04,VALID,1004.3,VALID,0,VALID,94.5371,VALID,0,VALID,24.307,VALID,45,VALID,0.430469,
2009-05-06, 02:25:04,VALID,1004.31,VALID,0,VALID,94.5752,VALID,0,VALID,24.3265,VALID,45,VALID,0.532031,
2009-05-06, 02:26:04,VALID,1004.35,VALID,0,VALID,94.3464,VALID,0,VALID,24.2486,VALID,45,VALID,0.287109,
2009-05-06, 02:27:04,VALID,1004.32,VALID,0,VALID,94.1938,VALID,0.100563,VALID,24.1671,VALID,45,VALID,0.278906,
2009-05-06, 02:28:04,VALID,1004.33,VALID,0,VALID,94.1938,VALID,0,VALID,24.1494,VALID,45,VALID,0.295312,
2009-05-06, 02:29:04,VALID,1004.31,VALID,0,VALID,94.209,VALID,0,VALID,24.1105,VALID,45,VALID,0.232422,
2009-05-06, 02:30:04,VALID,1004.3,VALID,0,VALID,94.209,VALID,0,VALID,24.091,VALID,45,VALID,0.133594,
2009-05-06, 02:31:04,VALID,1004.32,VALID,0,VALID,94.2472,VALID,0,VALID,24.0929,VALID,45,VALID,0,
2009-05-06, 02:32:04,VALID,1004.31,VALID,0,VALID,94.3387,VALID,0.100563,VALID,24.1105,VALID,45,VALID,0,
2009-05-06, 02:33:04,VALID,1004.31,VALID,0,VALID,94.4455,VALID,0.100563,VALID,24.13,VALID,45,VALID,0,
2009-05-06, 02:34:04,VALID,1004.29,VALID,0,VALID,94.4684,VALID,0,VALID,24.1494,VALID,45,VALID,0.314063,
2009-05-06, 02:35:04,VALID,1004.32,VALID,0,VALID,94.6286,VALID,0,VALID,24.2273,VALID,45,VALID,0.171875,
2009-05-06, 02:36:04,VALID,1004.28,VALID,0,VALID,94.6363,VALID,0,VALID,24.2662,VALID,45,VALID,0.419922,
2009-05-06, 02:37:04,VALID,1004.26,VALID,0,VALID,94.6897,VALID,0,VALID,24.3033,VALID,43,VALID,0.515234,
2009-05-06, 02:38:04,VALID,1004.27,VALID,0,VALID,94.6057,VALID,0,VALID,24.3052,VALID,43,VALID,0.480859,
2009-05-06, 02:39:04,VALID,1004.26,VALID,0,VALID,94.4989,VALID,0,VALID,24.2857,VALID,43,VALID,0.444531,
2009-05-06, 02:40:04,VALID,1004.24,VALID,0,VALID,94.4684,VALID,0,VALID,24.2875,VALID,43,VALID,0.372266,
2009-05-06, 02:41:04,VALID,1004.21,VALID,0,VALID,94.4608,VALID,0,VALID,24.2468,VALID,43,VALID,0.329688,
2009-05-06, 02:42:04,VALID,1004.21,VALID,0,VALID,94.4227,VALID,0,VALID,24.2273,VALID,43,VALID,0,
2009-05-06, 02:43:04,VALID,1004.2,VALID,0,VALID,94.4532,VALID,0,VALID,24.2468,VALID,43,VALID,0.233984,
2009-05-06, 02:44:04,VALID,1004.18,VALID,0,VALID,94.56,VALID,0,VALID,24.307,VALID,43,VALID,0.270703,
2009-05-06, 02:45:04,VALID,1004.14,VALID,0,VALID,94.5447,VALID,0,VALID,24.3052,VALID,44,VALID,0.323828,
2009-05-06, 02:46:04,VALID,1004.15,VALID,0,VALID,94.5447,VALID,0,VALID,24.307,VALID,45,VALID,0.142188,
2009-05-06, 02:47:04,VALID,1004.14,VALID,0,VALID,94.5142,VALID,0,VALID,24.3052,VALID,45,VALID,0.300391,
2009-05-06, 02:48:04,VALID,1004.12,VALID,0,VALID,94.5066,VALID,0,VALID,24.3052,VALID,44,VALID,0.383594,
2009-05-06, 02:49:04,VALID,1004.16,VALID,0,VALID,94.6134,VALID,0,VALID,24.3441,VALID,44,VALID,0.536328,
2009-05-06, 02:50:04,VALID,1004.15,VALID,0,VALID,94.6057,VALID,0,VALID,24.3636,VALID,44,VALID,0.2875,
2009-05-06, 02:51:04,VALID,1004.19,VALID,0,VALID,94.354,VALID,0,VALID,24.2857,VALID,44,VALID,0.379687,
2009-05-06, 02:52:04,VALID,1004.14,VALID,0,VALID,94.3311,VALID,0,VALID,24.2468,VALID,44,VALID,0.4625,
2009-05-06, 02:53:04,VALID,1004.17,VALID,0,VALID,94.3998,VALID,0,VALID,24.2662,VALID,44,VALID,0.378906,
2009-05-06, 02:54:04,VALID,1004.22,VALID,0,VALID,94.6057,VALID,0,VALID,24.3052,VALID,28,VALID,0.288672,
2009-05-06, 02:55:04,VALID,1004.19,VALID,0,VALID,94.5371,VALID,0,VALID,24.3246,VALID,28,VALID,0.0765625,
2009-05-06, 02:56:04,VALID,1004.21,VALID,0,VALID,94.3692,VALID,0,VALID,24.3052,VALID,28,VALID,0.214062,
2009-05-06, 02:57:04,VALID,1004.19,VALID,0,VALID,94.3769,VALID,0,VALID,24.3052,VALID,28,VALID,0.123047,
2009-05-06, 02:58:04,VALID,1004.21,VALID,0,VALID,94.3692,VALID,0,VALID,24.3052,VALID,28,VALID,0.303125,
2009-05-06, 02:59:04,VALID,1004.17,VALID,0,VALID,94.354,VALID,0,VALID,24.3052,VALID,28,VALID,0.00195313,
2009-05-06, 03:00:04,VALID,1004.17,VALID,0,VALID,94.354,VALID,0,VALID,24.3246,VALID,28,VALID,0.129688,
2009-05-06, 03:01:04,VALID,1004.16,VALID,0,VALID,94.3006,VALID,0.100563,VALID,24.3052,VALID,28,VALID,0.308594,
2009-05-06, 03:02:04,VALID,1004.12,VALID,0,VALID,94.2319,VALID,0,VALID,24.2255,VALID,28,VALID,0.271875,
2009-05-06, 03:03:04,VALID,1004.12,VALID,0,VALID,94.2396,VALID,0.100563,VALID,24.2468,VALID,28,VALID,0.0890625,
2009-05-06, 03:04:04,VALID,1004.11,VALID,0,VALID,94.2396,VALID,0.100563,VALID,24.2273,VALID,28,VALID,0.00117188,
2009-05-06, 03:05:04,VALID,1004.1,VALID,0,VALID,94.209,VALID,0,VALID,24.2273,VALID,28,VALID,0.175,
2009-05-06, 03:06:04,VALID,1004.09,VALID,0,VALID,94.2167,VALID,0.100563,VALID,24.1884,VALID,28,VALID,0.0773437,
2009-05-06, 03:07:04,VALID,1004.07,VALID,0,VALID,94.2853,VALID,0,VALID,24.2291,VALID,28,VALID,0,
2009-05-06, 03:08:04,VALID,1004.05,VALID,0,VALID,94.3692,VALID,0,VALID,24.2078,VALID,28,VALID,0,
2009-05-06, 03:09:04,VALID,1004.07,VALID,0,VALID,94.4379,VALID,0,VALID,24.2273,VALID,28,VALID,0.289453,
2009-05-06, 03:10:04,VALID,1004.04,VALID,0,VALID,94.415,VALID,0,VALID,24.2273,VALID,28,VALID,0.15625,
2009-05-06, 03:11:04,VALID,1004.04,VALID,0,VALID,94.3616,VALID,0.100563,VALID,24.206,VALID,28,VALID,0.299219,
2009-05-06, 03:12:04,VALID,1004.03,VALID,0,VALID,94.2167,VALID,0,VALID,24.1513,VALID,28,VALID,0.425,
2009-05-06, 03:13:04,VALID,1004.02,VALID,0,VALID,94.2014,VALID,0,VALID,24.1123,VALID,28,VALID,0.396875,
2009-05-06, 03:14:04,VALID,1004.03,VALID,0,VALID,94.2777,VALID,0,VALID,24.0929,VALID,28,VALID,0.416016,
2009-05-06, 03:15:04,VALID,1004.05,VALID,0,VALID,94.2472,VALID,0,VALID,24.0734,VALID,28,VALID,0.275,
2009-05-06, 03:16:04,VALID,1004.04,VALID,0,VALID,94.3311,VALID,0,VALID,24.0539,VALID,28,VALID,0.357031,
2009-05-06, 03:17:04,VALID,1004.02,VALID,0,VALID,94.4989,VALID,0,VALID,24.0929,VALID,28,VALID,0.414844,
2009-05-06, 03:18:04,VALID,1004.04,VALID,0,VALID,94.5981,VALID,0,VALID,24.1318,VALID,28,VALID,0.263281,
2009-05-06, 03:19:04,VALID,1004.07,VALID,0,VALID,94.5066,VALID,0,VALID,24.1318,VALID,28,VALID,0.279687,
2009-05-06, 03:20:04,VALID,1004.06,VALID,0,VALID,94.4455,VALID,0,VALID,24.1123,VALID,28,VALID,0.310156,
2009-05-06, 03:21:04,VALID,1004.05,VALID,0,VALID,94.4227,VALID,0,VALID,24.1142,VALID,28,VALID,0.118359,
2009-05-06, 03:22:04,VALID,1004.04,VALID,0,VALID,94.3998,VALID,0,VALID,24.0752,VALID,28,VALID,0.30625,
2009-05-06, 03:23:04,VALID,1004.04,VALID,0,VALID,94.3921,VALID,0,VALID,24.0326,VALID,28,VALID,0.423047,
2009-05-06, 03:24:04,VALID,1004,VALID,0,VALID,94.5371,VALID,0.100563,VALID,24.0521,VALID,28,VALID,0.488281,
2009-05-06, 03:25:04,VALID,1004.04,VALID,0,VALID,94.5829,VALID,0,VALID,24.0716,VALID,28,VALID,0.294922,
2009-05-06, 03:26:04,VALID,1004.05,VALID,0,VALID,94.415,VALID,0,VALID,24.0132,VALID,28,VALID,0.377734,
2009-05-06, 03:27:04,VALID,1004.05,VALID,0,VALID,94.2701,VALID,0,VALID,23.9353,VALID,28,VALID,0.453125,
2009-05-06, 03:28:04,VALID,1004.03,VALID,0,VALID,94.2624,VALID,0,VALID,23.8769,VALID,28,VALID,0.366406,
2009-05-06, 03:29:04,VALID,1004.04,VALID,0,VALID,94.3082,VALID,0.100563,VALID,23.8575,VALID,28,VALID,0.307031,
2009-05-06, 03:30:04,VALID,1004.04,VALID,0,VALID,94.415,VALID,0,VALID,23.8787,VALID,28,VALID,0.317969,
2009-05-06, 03:31:04,VALID,1004.05,VALID,0,VALID,94.5295,VALID,0,VALID,23.8964,VALID,28,VALID,0.306641,
2009-05-06, 03:32:04,VALID,1004.05,VALID,0,VALID,94.5447,VALID,0,VALID,23.9159,VALID,28,VALID,0.234375,
2009-05-06, 03:33:04,VALID,1004.07,VALID,0,VALID,94.5218,VALID,0,VALID,23.9159,VALID,28,VALID,0.253125,
2009-05-06, 03:34:04,VALID,1004.09,VALID,0,VALID,94.5981,VALID,0.100563,VALID,23.8964,VALID,28,VALID,0.194141,
2009-05-06, 03:35:04,VALID,1004.1,VALID,0,VALID,94.5142,VALID,0,VALID,23.8787,VALID,28,VALID,0.293359,
2009-05-06, 03:36:04,VALID,1004.13,VALID,0,VALID,94.4837,VALID,0,VALID,23.8362,VALID,28,VALID,0.275391,
2009-05-06, 03:37:04,VALID,1004.13,VALID,0,VALID,94.4455,VALID,0,VALID,23.7991,VALID,28,VALID,0.328125,
2009-05-06, 03:38:04,VALID,1004.13,VALID,0,VALID,94.7583,VALID,0.100563,VALID,23.8769,VALID,28,VALID,0.395703,
2009-05-06, 03:39:04,VALID,1004.14,VALID,0,VALID,94.7507,VALID,0.100563,VALID,23.8769,VALID,28,VALID,0.434375,
2009-05-06, 03:40:04,VALID,1004.15,VALID,0,VALID,94.7888,VALID,0,VALID,23.9159,VALID,14,VALID,0.649219,
2009-05-06, 03:41:04,VALID,1004.16,VALID,0,VALID,94.888,VALID,0.100563,VALID,23.9937,VALID,6,VALID,0.334375,
2009-05-06, 03:42:04,VALID,1004.11,VALID,0,VALID,94.8728,VALID,0,VALID,24.015,VALID,6,VALID,0.199219,
2009-05-06, 03:43:04,VALID,1004.14,VALID,0,VALID,94.7354,VALID,0,VALID,23.9973,VALID,6,VALID,0.242578,
2009-05-06, 03:44:04,VALID,1004.13,VALID,0,VALID,94.6515,VALID,0,VALID,23.9566,VALID,6,VALID,0.364844,